[[{"header":{"parameterUnit":"m.s-1","parameterCategory":1,"la1":30.2991,"la2":30.254,"lo1":-89.0895,"lo2":-89.0444,"dy":0.0017,"dx":0.0017,"nx":28,"ny":28,"refTime":"2025-04-12T21:00:00:Z","depth":0,"parameterNumber":2,"parameterNumberName":"U-component_of_WINDS"},"data":[0,0,0,0,0,0,0,0,0,0,0,0,0,0,0,0,0,0,0,0,0,0,0,0,0,0,0,0,0,0,0,0,0,0,0,0,0,0,0,0,0,0,0,0,0,0,0,0,0,0,0,0,0,0,0,0,0,0,1.8626,1.8627,0,1.8692,1.8692,1.8693,1.8708,1.8708,1.8707,1.8707,1.8777,1.8779,1.8782,0,0,0,0,0,0,0,0,0,0,0,0,0,1.8519,1.8521,1.8626,1.8627,1.8628,1.8692,1.8693,1.8693,1.8708,1.8708,1.8707,1.8707,1.8776,1.8779,1.8782,0,0,0,0,0,0,0,0,0,0,0,0,0,1.8573,1.8522,1.8626,1.8643,1.8645,1.8691,1.8693,1.8694,1.8708,1.8708,1.8707,1.8706,1.8775,1.8779,1.8782,1.8817,0,0,1.8793,1.8794,0,0,0,0,0,0,0,0,1.857,1.8577,1.864,1.8642,1.8644,1.8691,1.868,1.8735,1.8709,1.8684,1.8707,1.8706,1.8749,1.8755,1.8769,1.8821,1.8824,1.8793,1.8795,1.8797,1.8798,0,0,0,0,0,0,0,1.8566,1.8574,1.8652,1.8641,1.8643,1.8649,1.8656,1.8691,1.872,1.8687,1.8688,1.8695,1.875,1.8765,1.877,1.8825,1.8793,1.8796,1.8798,1.8799,1.8912,1.8913,0,0,0,0,0,0,1.8559,1.8571,1.865,1.8654,1.8605,1.8651,1.8659,1.8677,1.872,1.8725,1.8696,1.8696,1.876,1.8766,1.8773,1.8819,1.8797,1.88,1.8802,1.8911,1.8912,1.8913,0,0,0,0,0,0,1.8557,1.8566,1.8648,1.8613,1.8624,1.8654,1.8674,1.8678,1.8693,1.8727,1.8732,1.8705,1.8759,1.8768,1.8807,1.8821,1.8801,1.8804,1.891,1.8912,1.8913,1.891,0,0,0,0,0,0,1.8554,1.8565,1.8577,1.8613,1.8626,1.8679,1.8675,1.868,1.8699,1.8699,1.8737,1.8743,1.876,1.8801,1.881,1.8826,1.8807,1.8909,1.8911,1.8913,1.8909,1.8911,1.8913,0,0,0,0,0,1.855,1.8574,1.8578,1.8587,1.8641,1.8679,1.8687,1.8705,1.87,1.8714,1.8736,1.8741,1.8818,1.8805,1.8815,1.8832,1.8908,1.891,1.8912,1.8908,1.891,1.8913,0,0,0,0,0,0,1.8539,1.8579,1.8584,1.862,1.8646,1.8682,1.8699,1.8706,1.8735,1.8735,1.8757,1.8766,1.8803,1.8822,1.8806,1.887,1.8863,1.8868,1.8857,1.8859,1.8861,1.8856,1.881,0,0,0,0,0,1.8541,1.8567,1.8601,1.863,1.8643,1.8669,1.8686,1.8698,1.8726,1.8738,1.8762,1.8791,1.8822,1.8842,1.8872,1.8912,1.8921,1.8929,1.893,1.8932,1.8935,1.8961,1.8965,1.892,1.892,1.892,0,0,1.8545,1.857,1.8585,1.8628,1.865,1.8678,1.8678,1.8707,1.8729,1.8742,1.878,1.88,1.8834,1.8873,1.8892,1.889,1.895,1.8935,1.8936,1.8938,1.8963,1.8967,1.8971,1.8922,1.8922,1.8921,0,0,1.8568,1.8588,1.8615,1.8638,1.867,1.8688,1.8695,1.873,1.8743,1.8782,1.8793,1.882,1.8872,1.8897,1.8916,1.895,1.8958,1.8959,1.897,1.8994,1.8998,1.9001,1.9015,1.902,1.8963,1.8963,1.8963,0,1.8569,1.861,1.8629,1.8658,1.8678,1.8691,1.872,1.8741,1.8783,1.8797,1.8793,1.8861,1.8884,1.8931,1.894,1.8954,1.8965,1.8955,1.8996,1.8999,1.9003,1.9016,1.9021,1.8963,1.8963,1.8963,1.8963,0,1.8612,1.8641,1.8659,1.8698,1.872,1.8749,1.8774,1.8794,1.8805,1.8824,1.8865,1.8893,1.8931,1.8943,1.8953,1.8992,1.899,1.8991,1.8985,1.9007,1.902,1.9025,1.8963,1.8963,1.8963,1.8963,0,0,1.8628,1.8678,1.8685,1.8704,1.8743,1.8766,1.8797,1.8833,1.8851,1.888,1.8908,1.8953,1.8955,1.8977,1.8991,1.9012,1.904,1.9011,1.9012,1.9016,1.9087,1.9087,1.9093,1.9045,1.9046,1.9047,1.9085,0,1.8656,1.871,1.8729,1.8774,1.8803,1.8817,1.8845,1.8873,1.8892,1.892,1.8942,1.8974,1.8973,1.8986,1.9008,1.9032,1.9055,1.9029,1.9073,1.9075,1.9065,1.9099,1.9099,1.9133,1.909,1.9091,1.9092,0,1.8695,1.8724,1.8773,1.881,1.8823,1.8847,1.8883,1.8909,1.8942,1.8955,1.898,1.8993,1.9029,1.902,1.9071,1.9053,1.9073,1.9088,1.909,1.9095,1.9085,1.9107,1.9144,1.915,1.91,1.9099,1.9099,0,1.8704,1.8756,1.8792,1.8808,1.8852,1.8869,1.8888,1.892,1.8942,1.8974,1.8988,1.9024,1.9044,1.9073,1.9096,1.9087,1.9145,1.9138,1.9158,1.9158,1.917,1.9169,1.9212,1.9181,1.9181,1.9181,1.9181,0,1.8733,1.8763,1.8797,1.8819,1.8854,1.8876,1.891,1.8931,1.896,1.8988,1.9003,1.903,1.9058,1.9089,1.9108,1.9148,1.9157,1.917,1.9174,1.9169,1.9167,1.9182,1.9181,1.9182,1.9182,1.9182,1.9181,0,1.8749,1.8772,1.8813,1.8852,1.8863,1.8886,1.8921,1.8944,1.8964,1.9,1.901,1.9043,1.908,1.9106,1.9154,1.9167,1.9212,1.9215,1.92,1.9203,1.9222,1.922,1.9276,1.9286,1.9247,1.9248,1.9248,0,1.8766,1.8789,1.8831,1.8851,1.887,1.8901,1.8923,1.8947,1.897,1.9011,1.903,1.9069,1.9101,1.9161,1.919,1.9227,1.9233,1.925,1.9239,1.9233,1.9235,1.9234,1.9238,1.9252,1.9253,1.9253,1.9253,0,1.8796,1.8807,1.8837,1.8873,1.8899,1.8928,1.8957,1.8973,1.9003,1.9028,1.9066,1.9091,1.9141,1.918,1.9221,1.9243,1.9254,1.9256,1.9263,1.9258,1.9249,1.9256,1.9206,1.9255,1.9255,1.9255,1.9255,1.9254,1.8814,1.8836,1.8869,1.8903,1.8928,1.8956,1.8981,1.9005,1.9037,1.9078,1.9091,1.9132,1.9167,1.9223,1.9246,1.928,1.9279,1.9288,1.9291,1.9293,1.9294,1.9243,1.9287,1.9287,1.9287,1.9287,1.9287,0,1.8845,1.8868,1.8899,1.894,1.8968,1.8975,1.9008,1.9032,1.9067,1.9098,1.913,1.9176,1.9214,1.9247,1.9287,1.9308,1.9314,1.9318,1.9317,1.9323,1.9292,1.9282,1.9313,1.9313,1.9313,1.9313,1.9313,1.9312,1.8865,1.8903,1.8919,1.8971,1.8994,1.9033,1.9052,1.9079,1.9104,1.9154,1.9186,1.9207,1.924,1.9283,1.932,1.9329,1.9344,1.9347,1.9357,1.9327,1.9324,1.9322,1.9313,1.9349,1.9349,1.9385,1.9385,1.9386]},{"header":{"parameterUnit":"m.s-1","parameterCategory":1,"la1":30.2991,"la2":30.254,"lo1":-89.0895,"lo2":-89.0444,"dy":0.0017,"dx":0.0017,"nx":28,"ny":28,"refTime":"2025-04-12T21:00:00:Z","depth":0,"parameterNumber":3,"parameterNumberName":"V-component_of_WINDS"},"data":[0,0,0,0,0,0,0,0,0,0,0,0,0,0,0,0,0,0,0,0,0,0,0,0,0,0,0,0,0,0,0,0,0,0,0,0,0,0,0,0,0,0,0,0,0,0,0,0,0,0,0,0,0,0,0,0,0,0,-2.5134,-2.5134,0,-2.5116,-2.5116,-2.5115,-2.519,-2.5193,-2.5195,-2.5197,-2.5172,-2.5169,-2.5166,0,0,0,0,0,0,0,0,0,0,0,0,0,-2.5229,-2.5227,-2.5134,-2.5134,-2.5133,-2.5116,-2.5116,-2.5115,-2.519,-2.5193,-2.5195,-2.5198,-2.5173,-2.5169,-2.5166,0,0,0,0,0,0,0,0,0,0,0,0,0,-2.5197,-2.5226,-2.5134,-2.5169,-2.5172,-2.5116,-2.5116,-2.5115,-2.5189,-2.5193,-2.5196,-2.5199,-2.5174,-2.517,-2.5166,-2.5073,0,0,-2.5153,-2.5151,0,0,0,0,0,0,0,0,-2.5198,-2.5193,-2.5164,-2.5166,-2.517,-2.5159,-2.514,-2.5101,-2.5189,-2.5182,-2.5197,-2.5201,-2.5164,-2.5161,-2.515,-2.5072,-2.5071,-2.5153,-2.515,-2.5148,-2.5147,0,0,0,0,0,0,0,-2.52,-2.5194,-2.5127,-2.5163,-2.5167,-2.5184,-2.5183,-2.5133,-2.5155,-2.5183,-2.5189,-2.5186,-2.5166,-2.5154,-2.515,-2.5071,-2.5153,-2.5149,-2.5147,-2.5145,-2.4916,-2.4913,0,0,0,0,0,0,-2.5199,-2.5196,-2.5127,-2.5126,-2.5193,-2.5179,-2.5178,-2.5159,-2.5155,-2.5158,-2.5183,-2.5189,-2.5159,-2.5155,-2.515,-2.5041,-2.5148,-2.5145,-2.5142,-2.492,-2.4916,-2.4912,0,0,0,0,0,0,-2.5201,-2.5192,-2.5128,-2.5162,-2.5156,-2.5174,-2.5152,-2.5157,-2.5144,-2.5155,-2.5159,-2.5167,-2.5162,-2.5155,-2.5092,-2.5041,-2.5143,-2.5139,-2.4924,-2.4919,-2.4914,-2.4823,0,0,0,0,0,0,-2.5203,-2.5192,-2.5158,-2.5161,-2.5153,-2.5072,-2.5148,-2.5154,-2.5138,-2.5146,-2.5141,-2.5143,-2.5164,-2.5098,-2.5088,-2.5037,-2.5136,-2.4929,-2.4922,-2.4915,-2.483,-2.4815,-2.4802,0,0,0,0,0,-2.5206,-2.5132,-2.5156,-2.5147,-2.5112,-2.5069,-2.5064,-2.5091,-2.5133,-2.5099,-2.5106,-2.5143,-2.5049,-2.5091,-2.508,-2.5027,-2.4932,-2.4924,-2.4916,-2.4837,-2.4818,-2.4802,0,0,0,0,0,0,-2.5119,-2.5133,-2.516,-2.5084,-2.5075,-2.5082,-2.5038,-2.5071,-2.5047,-2.5056,-2.5089,-2.5087,-2.5018,-2.5017,-2.5063,-2.4938,-2.4998,-2.4987,-2.4941,-2.4923,-2.4909,-2.4909,-2.5132,0,0,0,0,0,-2.5092,-2.5058,-2.5071,-2.5003,-2.4998,-2.5019,-2.5001,-2.5023,-2.5014,-2.501,-2.5013,-2.5001,-2.4969,-2.4946,-2.4917,-2.4832,-2.4831,-2.479,-2.4776,-2.4764,-2.4753,-2.4708,-2.4689,-2.4885,-2.4885,-2.4885,0,0,-2.5034,-2.5037,-2.5013,-2.4986,-2.4981,-2.4944,-2.5015,-2.4972,-2.4943,-2.5003,-2.4943,-2.4945,-2.4934,-2.486,-2.4827,-2.4856,-2.47,-2.4754,-2.4744,-2.474,-2.4697,-2.4679,-2.4662,-2.488,-2.4881,-2.4881,0,0,-2.4908,-2.4908,-2.4852,-2.4847,-2.484,-2.4855,-2.4842,-2.4844,-2.4848,-2.479,-2.4834,-2.4801,-2.4745,-2.4735,-2.4723,-2.4597,-2.4629,-2.4586,-2.451,-2.4465,-2.445,-2.4436,-2.4389,-2.4373,-2.4576,-2.4576,-2.4576,0,-2.4836,-2.4783,-2.4818,-2.4773,-2.4759,-2.4815,-2.4757,-2.4749,-2.4732,-2.4721,-2.4756,-2.4688,-2.4684,-2.4608,-2.4577,-2.4566,-2.455,-2.4585,-2.445,-2.4436,-2.4424,-2.438,-2.4362,-2.4571,-2.4571,-2.4572,-2.4573,0,-2.4694,-2.4656,-2.4612,-2.4597,-2.4578,-2.4527,-2.4553,-2.453,-2.4555,-2.4566,-2.4506,-2.4504,-2.4476,-2.446,-2.4483,-2.4387,-2.4405,-2.4444,-2.4504,-2.4399,-2.4358,-2.4342,-2.4563,-2.4565,-2.4567,-2.4568,0,0,-2.4509,-2.4517,-2.45,-2.4494,-2.4492,-2.4463,-2.4414,-2.4389,-2.4368,-2.4356,-2.4314,-2.4267,-2.4304,-2.429,-2.4312,-2.4273,-2.4172,-2.4317,-2.4317,-2.4288,-2.4065,-2.4034,-2.4014,-2.4196,-2.4193,-2.419,-2.4065,0,-2.4385,-2.4303,-2.4335,-2.425,-2.4215,-2.4269,-2.4226,-2.422,-2.423,-2.42,-2.4211,-2.4176,-2.4228,-2.422,-2.4184,-2.4192,-2.4127,-2.4202,-2.4155,-2.4153,-2.4153,-2.3993,-2.3959,-2.3841,-2.405,-2.4047,-2.4045,0,-2.4228,-2.4212,-2.4124,-2.413,-2.4116,-2.4077,-2.4057,-2.403,-2.4024,-2.4034,-2.4019,-2.4051,-2.4002,-2.4065,-2.3997,-2.4047,-2.4031,-2.4032,-2.4028,-2.4022,-2.409,-2.398,-2.3804,-2.3785,-2.4021,-2.4023,-2.4024,0,-2.41,-2.4056,-2.3998,-2.3992,-2.3997,-2.3969,-2.3969,-2.3967,-2.395,-2.3933,-2.3922,-2.3898,-2.3884,-2.3864,-2.3888,-2.3932,-2.3816,-2.3881,-2.3821,-2.382,-2.3791,-2.3792,-2.3607,-2.3785,-2.3785,-2.3786,-2.3786,0,-2.3956,-2.3899,-2.3941,-2.3904,-2.3843,-2.388,-2.3817,-2.3824,-2.3822,-2.3787,-2.3832,-2.3798,-2.3833,-2.3802,-2.3821,-2.3761,-2.3755,-2.376,-2.3765,-2.3754,-2.3753,-2.3741,-2.3749,-2.3781,-2.3782,-2.3783,-2.3784,0,-2.38,-2.3826,-2.3766,-2.3778,-2.3779,-2.3733,-2.3742,-2.3708,-2.3724,-2.3679,-2.367,-2.3692,-2.3658,-2.3681,-2.3646,-2.3659,-2.358,-2.3598,-2.3582,-2.3586,-2.3524,-2.3528,-2.3323,-2.3297,-2.3493,-2.3492,-2.349,0,-2.3705,-2.3663,-2.3671,-2.3653,-2.3651,-2.362,-2.3604,-2.3639,-2.3621,-2.3612,-2.3579,-2.355,-2.3527,-2.347,-2.3482,-2.3455,-2.3471,-2.3401,-2.3467,-2.3458,-2.3467,-2.3468,-2.3463,-2.3386,-2.3384,-2.3382,-2.3381,0,-2.3533,-2.3548,-2.3525,-2.3506,-2.3486,-2.3472,-2.3462,-2.3444,-2.348,-2.3456,-2.3424,-2.3407,-2.3373,-2.3342,-2.3321,-2.332,-2.3355,-2.3361,-2.3345,-2.3331,-2.3323,-2.3325,-2.3543,-2.3364,-2.3366,-2.3367,-2.3368,-2.3368,-2.3403,-2.3368,-2.3369,-2.3341,-2.3339,-2.3328,-2.3298,-2.331,-2.3284,-2.326,-2.3283,-2.3243,-2.3239,-2.3215,-2.321,-2.3178,-2.3206,-2.3184,-2.3178,-2.3171,-2.3161,-2.3332,-2.3174,-2.3175,-2.3175,-2.3176,-2.3176,0,-2.3231,-2.3235,-2.321,-2.3195,-2.3173,-2.3213,-2.3204,-2.3182,-2.3147,-2.3142,-2.3121,-2.3083,-2.3054,-2.3065,-2.3039,-2.3012,-2.3027,-2.3003,-2.3004,-2.3003,-2.3138,-2.3153,-2.2991,-2.2991,-2.2991,-2.2991,-2.2991,-2.2992,-2.3138,-2.3082,-2.3098,-2.3041,-2.3045,-2.3008,-2.3,-2.299,-2.2986,-2.2943,-2.292,-2.2929,-2.293,-2.2905,-2.288,-2.2884,-2.2871,-2.2841,-2.285,-2.2975,-2.2993,-2.3011,-2.3025,-2.2838,-2.2838,-2.2717,-2.2716,-2.2715]}]]